Regional Weather Roundup
Issued by NWS Sioux Falls, SD

Home | Current Version | Previous Version | Text Only | Print | Product List | Glossary On
Versions: 1 2 3 4 5 6 7 8 9 10 11 12 13 14 15 16 17 18 19 20 21 22 23 24 25 26 27 28 29 30 31 32 33 34 35 36 37 38 39 40 41 42 43 44 45 46 47 48 49 50
451
ASUS43 KFSD 260102
RWRFSD

WEATHER ROUNDUP FOR SE SOUTH DAKOTA/SW MINNESOTA/NW IOWA
NATIONAL WEATHER SERVICE SIOUX FALLS SD
800 PM CDT WED APR 25 2018

NOTE: "FAIR" INDICATES FEW OR NO CLOUDS BELOW 12,000 FEET WITH NO
SIGNIFICANT WEATHER AND OR OBSTRUCTIONS TO VISIBILITY.


SDZ038>040-050-052>070-260200-
SOUTHEAST SOUTH DAKOTA

CITY           SKY/WX    TMP DP  RH WIND       PRES   REMARKS
BROOKINGS      PTCLDY    53  34  48 SW7       29.99F
CHAMBERLAIN    MOCLDY    59  33  37 S10       29.93F
HURON          CLOUDY    58  35  42 S13       29.94F
MADISON        FAIR      52  34  50 S8        29.99F
MITCHELL       CLOUDY    58  33  39 S10       29.98F
SIOUX FALLS    PTCLDY    56  28  34 SW3       30.00F
WINNER         FAIR      60  28  29 S12       29.93F
YANKTON        CLEAR     57  27  31 E3        30.01F
$$

MNZ071-072-080-081-089-090-097-098-260200-
SOUTHWEST MINNESOTA

CITY           SKY/WX    TMP DP  RH WIND       PRES   REMARKS
FAIRMONT       CLEAR     54  34  46 W3        30.03F
JACKSON        CLEAR     52  32  46 CALM      30.03F
LUVERNE        CLEAR     50  32  50 SW7       30.01F
MARSHALL       PTCLDY    53  36  52 S6        30.00F
MONTEVIDEO     CLOUDY    54  32  43 SW3       29.99S
PIPESTONE      CLEAR    N/A N/A N/A SW3       30.00F
REDWOOD FALLS  CLEAR     52  37  56 S7        30.00F
TRACY          CLOUDY    55  38  52 SW3       30.00F
WINDOM         CLEAR     54  28  37 CALM      30.02F
WORTHINGTON    CLEAR     54  35  48 W3        30.02F
$$

IAZ001>003-012>014-020>022-031-032-NEZ013-014-SDZ071-260200-
NORTHWEST IOWA

CITY           SKY/WX    TMP DP  RH WIND       PRES   REMARKS
CHEROKEE       CLEAR     57  29  33 CALM      30.01F
DENISON        CLEAR     59  23  25 N3        30.03F
ESTHERVILLE    CLEAR     53  36  52 CALM      30.02F
LE MARS        CLEAR     59  28  31 W3        30.02S
ORANGE CITY    CLEAR     55  30  38 CALM      30.02F
SHELDON        CLEAR     55  25  30 SW5       30.00F
SIOUX CITY     CLEAR     58  31  35 W5        30.02F
SPENCER        CLEAR     58  27  30 CALM      30.02F
STORM LAKE     CLEAR     55  27  33 E5        30.02S
$$

ABBREVIATIONS USED IN REMARKS
   TC - TEMPERATURE IN CELSIUS
  WCI - WIND CHILL INDEX
   HX - HEAT INDEX
  VSB - VISIBILITY





USA.gov is the U.S. government's official web portal to all federal, state and local government web resources and services.